Masset current weather conditions

sailwx.info

Wind from 140 at 6 knots

Air temperature 8.0° C
Visibility: greater than 13.0 NM
Dewpoint 6.0° C

Last reported at 2014-Oct-24 01:00 UTC.
Time now 2014-Oct-24 11:59 UTC

Location: N 54°02' W 132°08'.
View on Google Maps.

See reports from other nearby stations

  
Tides and Currents Weather Stations Pressure Air Temp Water Temp Dewpoint Dewpoint Depression Visibility Wind Speed Wind Dir Waves Ship Positions
date/time (UTC)wind fromknots sea level pressurealtimeterstation pressurevisibilityair tempwater tempwave heightnotes
2014-Oct-24 01:00 140 6 13.0 8.0
2014-Oct-24 00:00 150 7 13.0 9.0
2014-Oct-23 23:00 140 5 13.011.0
2014-Oct-23 22:00 150 7 13.010.0
2014-Oct-23 21:00 160 8 13.010.0
2014-Oct-23 20:00 160 9 13.010.0
2014-Oct-23 19:00 160 9 13.011.0
2014-Oct-23 18:00 160 6 13.0 9.0
2014-Oct-23 17:00 160 6 13.0 6.0
2014-Oct-23 16:00 150 4 13.0 1.0
2014-Oct-23 15:00 160 5 13.0 4.0
2014-Oct-23 14:00 160 5 13.0 6.0
2014-Oct-23 01:00 140 6 13.0 9.0
2014-Oct-23 00:42 130 3 13.0 9.0
2014-Oct-23 00:27 110 5 13.0 9.0 Light rain.
2014-Oct-23 00:00 140 6 1.3 9.0 Light rain. Mist.
2014-Oct-22 23:37 130 5 13.0 9.0
2014-Oct-22 23:32 1.1 9.0 Light rain. Mist.
2014-Oct-22 23:27 1.7 9.0 Light drizzle. Mist.
2014-Oct-22 23:13 090 4 13.0 9.0 Light drizzle.
2014-Oct-22 23:00 140 4 13.0 9.0 Light rain.
2014-Oct-22 22:49 120 3 8.7 9.0 Light drizzle.
2014-Oct-22 22:29 090 4 1.3 8.0 Light rain. Mist.
2014-Oct-22 22:15 070 3 8.7 8.0 Light drizzle.
2014-Oct-22 22:00 100 3 2.2 8.0 Light drizzle. Mist.
2014-Oct-22 21:10 130 6 13.0 9.0 Light drizzle.
2014-Oct-22 21:00 130 5 13.0 9.0
2014-Oct-22 20:26 140 5 13.0 8.0 Light rain.
2014-Oct-22 20:18 150 6 13.0 9.0
2014-Oct-22 20:00 140 9 gusting 17 13.0 8.0 Light rain showers.
2014-Oct-22 19:37 140 13 gusting 20 8.7 8.0 Light rain showers.
2014-Oct-22 19:29 140 15 gusting 22 1.7 8.0 Light rain showers. Mist.
2014-Oct-22 19:10 140 5 13.010.0 Light rain showers.
2014-Oct-22 19:00 110 3 13.010.0
2014-Oct-22 18:00 13.0 9.0
2014-Oct-22 17:00 13.0 7.0
2014-Oct-22 16:00 180 2 13.0 6.0
2014-Oct-22 15:00 180 2 13.0 7.0
2014-Oct-22 14:00 180 5 13.0 7.0